Flag for U.S.A. Weather past 2 weeks in Baltimore, Maryland, U.S.A.

Now
77 °F

More clouds than sun.


Feels Like: 79 °F
Forecast: 69 / 89 °F
Wind: No wind

Location: Baltimore-Washington International Airport

Current Time: Sep 2, 2015 at 9:29:10 AM

Latest Report: Sep 2, 2015 at 8:54 AM


Visibility: 8 mi

Pressure: 30.04 "Hg

Humidity: 71%

Dew point: 67 °F

Location of BaltimoreLocation

Historic Weather in Baltimore — Graph

°F

Baltimore temperature yesterday

Maximum temperature yesterday: 92 °F (at 2:54 PM)
Minimum temperature yesterday: 69 °F (at 6:54 AM)
Average temperature yesterday: 80 °F

Past Weeks' High & Low Weather Summary

 TemperatureHumidityPressure
High92 °F (Sep 1, 2:54 PM)97% (Aug 20, 6:54 AM)30.21 "Hg (Aug 20, 6:54 AM)
Low57 °F (Aug 23, 3:54 AM)34% (Aug 22, 1:54 PM)29.80 "Hg (Aug 24, 6:54 PM)
Average75 °F69%30.02 "Hg
* Reported Aug 18 7:54 AM — Sep 2 7:54 AM, Baltimore, Weather by CustomWeather, © 2015

Note: Actual official high and low records may vary slightly from our data, if they occured in-between our weather recording intervals... More about our weather records

Advertising

Baltimore weather history for previous 24 hours

 ConditionsComfort  
Time TempWeatherWind HumidityBarometerVisibility
7:54 AM
Wed, Sep 2
73 °FPartly sunny.3 mph84%30.04 "Hg6 mi
6:54 AM70 °FFog.No wind93%30.03 "Hg5 mi
5:54 AM71 °FPartly cloudy.No wind90%30.02 "Hg7 mi
4:54 AM73 °FPassing clouds.No wind88%30.01 "Hg7 mi
3:54 AM72 °FPassing clouds.No wind93%30.01 "Hg7 mi
2:54 AM72 °FPassing clouds.No wind93%30.01 "Hg7 mi
1:54 AM74 °FPartly cloudy.No wind88%30.03 "Hg7 mi
12:54 AM74 °FPartly cloudy.3 mph88%30.04 "Hg7 mi
11:54 PM
Tue, Sep 1
75 °FPassing clouds.No wind85%30.04 "Hg8 mi
10:54 PM76 °FPassing clouds.No wind82%30.04 "Hg7 mi
9:54 PM76 °FPassing clouds.No wind82%30.04 "Hg8 mi
8:54 PM80 °FPassing clouds.No wind71%30.03 "Hg9 mi
7:54 PM83 °FPartly sunny.No wind65%30.01 "Hg10 mi
6:54 PM85 °FBroken clouds.6 mph61%30.00 "Hg10 mi
4:54 PM91 °FBroken clouds.5 mph42%29.99 "Hg10 mi
3:54 PM92 °FScattered clouds.5 mph41%29.99 "Hg10 mi
2:54 PM92 °FScattered clouds.7 mph41%30.01 "Hg10 mi
1:54 PM90 °FScattered clouds.6 mph45%30.03 "Hg10 mi
12:54 PM91 °FScattered clouds.5 mph44%30.05 "Hg10 mi
11:54 AM90 °FScattered clouds.7 mph47%30.06 "Hg10 mi
10:54 AM87 °FPassing clouds.6 mph50%30.07 "Hg10 mi
9:54 AM84 °FPassing clouds.3 mph59%30.06 "Hg10 mi
Weather by CustomWeather, © 2015

See weather overviewHow to use our weather pages